OBJECT P, 43771

Orbit data source: Space-Track

You're viewing an Uncataloged Satellite

Recently launched and/or uncataloged satellites may have evolving metadata. Metadata may include but not limited to: Owner, Maufacturer, Bus, Motor, and Mission.

OBJECT P, 43771 is a satellite in SSO that was launched on Mon, 03 Dec 2018 UTC via an FALCON 9 launch vehicle from the Air Force Western Test Range (AFWTR). Unknown objects in Earth's orbit typically refer to objects detected orbiting the Earth but have not yet been identified or cataloged. These objects could be anything from previously untracked satellites, spent rocket stages, debris from satellite collisions, or even natural meteoroids temporarily captured by Earth's gravity.

Loading next visibility...
Identifier
43771, 2018-099P
Orbit
SSO
Country
Flag of TBDTBD
Related business
None
Manufacturer
Unknown
Mission
Non-operational Amateur Technology
Bus & Motor
Unknown
Mass
Unknown
Launch date (UTC)
2018-12-03 (8 years ago)
Launch vehicle
FALCON 9
Launch site
Air Force Western Test Range (AFWTR)
Object type
Unknown
Shape & HBR
Box + Inf Sphere + 4 Pan, 15.0 m
Radar Cross Section
1.830 m², Medium (>0.1 m² and < 1m²)

Expand to show TLE details & history
Last TLE update: 2 days ago

TLE from 2 days ago
0 OBJECT P
1 43771U 18099P   26171.45011112  .00015803  00000-0  47440-3 0  9990
2 43771  97.4238 235.1051 0006935 267.1658  92.8792 15.34507570414049
Epoch: 2026-06-20T10:48Z
TLE epoch observation values (Epoch: 2026-06-20T10:48:09.600Z)
Latitude
0.00003°
Longitude
164.40053°
Altitude
465.735 km
Speed
7.633 km/s
True Right ascension
15h 40m 25s
True Declination
0° 00' 00"
Sunlit
Object was in full shadow at epoch
Visualization orbit readout
Latitude
Unknown
Longitude
Unknown
Altitude
Unknown
Speed
Unknown
Apparent Right ascension
Unknown
Apparent Declination
Unknown
Sunlit
N/A
Visualization observer readout
Local Sidereal Time
21:35:22
Azimuth
Unknown
Elevation
Unknown
Doppler factor
Unknown
Orbital elements
Apogee altitude
464.073 km
Perigee altitude
454.589 km
Semi-major axis
6,837.468 km
Eccentricity
0.00069
Inclination
97.4238°
RAAN
235.1051°
Arg. of periapsis
267.1658°
True anomaly
92.95857°
Mean anomaly
92.8792°
Eccentric anomaly
92.91888°
Mean motion
3.83884 °/min
Orbital period
93.78 mins
BSTAR
0.0004744
Loading maneuver chart data...
Computing Atmospheric mass density...
Loading historical data...
Loading historical data...
Loading historical data...
Loading historical data...
Loading historical data...
Loading historical data...
Loading historical data...

Documentation

Showing up to 5 results
|